Content
SEND FEEDBACK

Daily
Averages
Monthly
Summary
United States of America

BROOKLYN, NEW YORK


Home > North America > United States > New York
Elevation: 2 feet     Latitude: 40 36N     Longitude: 073 59W

WEATHER
 
SELECT A DAY
Number of Records: 188,190;   Date Range: 1/1/95 - 10/23/14
 
SHARE

PRINT THIS DATA

[ ← Previous Day ]
WEATHER ALMANAC - MARCH 1, 2013
[ Next Day → ]
[ °C ]   °F
Weather ElementAverageHighLow
Temperature40.6 °F44.1 °F (10:51 am)36 °F (4:51 am)
Dewpoint26.6 °F30 °F (7:51 am)23 °F (11:51 pm)
Humidity58.1 %73 % (1:51 am)45 % (3:51 pm)
Barometer29.70 in29.78 in (9:51 pm)29.61 in (1:51 am)
Wind Speed13.1 mph20.7 mph (8:51 pm)
Wind Gust26.5 mph (7:51 pm)
Weather ElementAverage
Visibility10 mi
Wind DirectionNNW (321.7 °)

Weather ElementTotal
Precipitation---
Heating Degree Days25 (Base 65)
Averaged from 23 records on March 1, 2013
WEATHER CONDITIONS BREAKOUT
WIND DIRECTION BREAKOUT
WEATHER BY HOUR - MARCH 1, 2013
[ °C ]   °F
Local TimeTemperatureDewpointHumidityBarometerVisibilityWind DirectionWind SpeedGust SpeedPrecipitationEventsConditions
1:51 AM37.0 °F28.9 °F73 %29.61 in10.0 miNW (310°)10.4 mphPartly Cloudy
2:51 AM37.9 °F28.9 °F70 %29.62 in10.0 miNW (310°)10.4 mphPartly Cloudy
3:51 AM37.0 °F28.9 °F73 %29.64 in10.0 miWNW (300°)9.2 mphPartly Cloudy
4:51 AM36.0 °F28.0 °F73 %29.64 in10.0 miNW (320°)12.7 mphPartly Cloudy
5:51 AM37.0 °F28.0 °F70 %29.66 in10.0 miNW (310°)10.4 mphPartly Cloudy
6:51 AM36.0 °F28.0 °F73 %29.67 in10.0 miWNW (300°)8.1 mphScattered Clouds
7:51 AM39.9 °F30.0 °F68 %29.69 in10.0 miNW (310°)9.2 mphScattered Clouds
8:51 AM41.0 °F28.9 °F62 %29.70 in10.0 miNNW (330°)12.7 mphMostly Cloudy
9:51 AM43.0 °F28.0 °F56 %29.70 in10.0 miNNW (330°)11.5 mph20.7 mphMostly Cloudy
10:51 AM44.1 °F27.0 °F51 %29.70 in10.0 miNNW (330°)9.2 mphMostly Cloudy
11:51 AM44.1 °F27.0 °F51 %29.71 in10.0 miNNW (340°)10.4 mphMostly Cloudy
12:51 PM44.1 °F26.1 °F49 %29.70 in10.0 miNNW (330°)10.4 mphOvercast
1:51 PM44.1 °F26.1 °F49 %29.69 in10.0 miNNW (340°)10.4 mphOvercast
2:51 PM44.1 °F26.1 °F49 %29.69 in10.0 miNW (320°)6.9 mphOvercast
3:51 PM44.1 °F24.1 °F45 %29.69 in10.0 miNW (320°)13.8 mphOvercast
4:51 PM43.0 °F24.1 °F47 %29.70 in10.0 miNW (320°)16.1 mph24.2 mphOvercast
5:51 PM43.0 °F25.0 °F49 %29.73 in10.0 miNW (310°)18.4 mph23.0 mphOvercast
6:51 PM42.1 °F25.0 °F51 %29.75 in10.0 miNW (320°)18.4 mphOvercast
7:51 PM41.0 °F26.1 °F55 %29.76 in10.0 miNNW (330°)19.6 mph26.5 mphOvercast
8:51 PM39.9 °F25.0 °F55 %29.77 in10.0 miNNW (330°)20.7 mph26.5 mphOvercast
9:51 PM39.0 °F25.0 °F57 %29.78 in10.0 miNNW (330°)18.4 mph24.2 mphOvercast
10:51 PM39.0 °F24.1 °F55 %29.78 in10.0 miNNW (330°)17.3 mphOvercast
11:51 PM37.9 °F23.0 °F55 %29.78 in10.0 miNNW (330°)17.3 mphOvercast
Hourly data recorded from KJFK, located miles away from Brooklyn, New York







STORIES FROM OUR PARTNERS